{"data":{"norad_id":57678,"intl_designator":"2023-124R","name":"STARLINK-30320","alt_names":[],"object_type":"PAYLOAD","status":"ACTIVE","operator":null,"country":"US","launch_date":"2023-08-22","launch_site_code":"AFWTR","launch_vehicle":null,"mission":null,"orbit_class":"UNKNOWN","rcs_meters":null,"size_class":null,"mass_kg":null,"dimensions":null,"purposes":["comms"],"wikipedia_slug":null,"has_3d_model":false,"image_url":null,"decayed_at":null,"tle_current":{"epoch":"2026-09-20T13:10:55.202592Z","epoch_age_seconds":127455,"freshness":"FRESH","line1":"1 57678U 23124R   26263.54925003 -.00002477  00000+0 -62211-4 0  9999","line2":"2 57678  53.1608   5.2955 0001636  87.4787 272.6403 15.34392503173630","mean_motion":15.34392503,"eccentricity":0.0001636,"inclination_deg":53.1608,"raan_deg":5.2955,"arg_perigee_deg":87.4787,"mean_anomaly_deg":272.6403,"bstar":-6.2211e-5,"rev_number":17363,"period_min":93.848216618926,"perigee_km":461.606357853,"apogee_km":463.84468807051,"semimajor_km":6840.8625229618,"source":"CELESTRAK","updated_at":"2026-09-21T09:00:33.672354Z"}}}